Regional Weather Roundup
Issued by NWS

Home | Current Version | Previous Version | Graphics & Text | Print | Product List | Glossary On
Versions: 1 2 3 4 5 6 7 8 9 10 11 12 13 14 15 16 17 18 19 20 21 22 23 24 25 26 27
000
ASUS43 KDMX 241607
RWRIA

WEATHER ROUNDUP FOR IOWA
NATIONAL WEATHER SERVICE DES MOINES IA
1100 AM CDT THU APR 24 2014

NOTE: "FAIR" INDICATES FEW OR NO CLOUDS BELOW 12,000 FEET WITH NO
SIGNIFICANT WEATHER AND/OR OBSTRUCTIONS TO VISIBILITY.

* - THESE STATIONS ARE NOT NWS STATIONS...THUS NOT UNDER NWS
QUALITY CONTROL.  THEY ALSO DO NOT REPORT WEATHER SUCH
AS PRECIPITATION OR FOG.

IAZ001>003-012>014-020>022-031>034-043>046-241700-
   NORTHWEST IOWA

CITY           SKY/WX    TMP DP  RH WIND       PRES   REMARKS
CARROLL *      PTSUNNY   52  48  87 NW12      29.67R
CHEROKEE *     CLOUDY    48  45  87 NW8       29.69R
DENISON *      CLOUDY    50  48  93 W10       29.68R
LE MARS *        N/A     52  48  87 NW18      29.71R
ORANGE CITY *  CLOUDY    50  45  81 N13G20    29.69R
SHELDON *      CLOUDY    46  45  93 NW10      29.68R FOG
SIOUX CITY     CLOUDY    53  49  86 NW21G30   29.70S
SPENCER        CLOUDY    47  43  86 NW7       29.68R
STORM LAKE *   CLOUDY    48  46  93 NW12      29.68R
$$

IAZ055>058-069>071-079>083-090>094-241700-
   SOUTHWEST IOWA

CITY           SKY/WX    TMP DP  RH WIND       PRES   REMARKS
ATLANTIC *     CLOUDY    54  50  87 NW12      29.67S
AUDUBON *      MOSUNNY   55  48  76 W10       29.69R
CLARINDA *     CLOUDY    55  52  88 NW7       29.69F
COUNCIL BLFS * CLOUDY    54  54 100 NW15      29.67F
CRESTON *      CLOUDY    54  54 100 SW6       29.68S FOG
HARLAN  *      CLOUDY    54  50  87 W14       29.72R
LAMONI         CLOUDY    57  54  89 S12       29.68R
RED OAK *      CLOUDY    55  50  82 NW16      29.66F
SHENANDOAH *   CLOUDY    55  52  88 NW10      29.70R
$$

IAZ047>049-059>061-072>074-084-241700-
   CENTRAL IOWA

CITY           SKY/WX    TMP DP  RH WIND       PRES   REMARKS
AMES           CLOUDY    51  48  89 S8        29.65S
ANKENY *       CLOUDY    54  52  94 SW6       29.67S
CHARITON *     LGT RAIN  54  50  87 S21       29.64F
DES MOINES     CLOUDY    55  52  89 SW3       29.67R
GRINNELL*      RAIN      46  45  93 SE20      29.67F
KNOXVILLE *    CLOUDY    50  46  87 SE16G22   29.62F
MARSHALLTOWN   LGT RAIN  47  44  90 S16G28    29.67F
NEWTON *       LGT RAIN  46  46 100 SE16G23   29.66F
PELLA *        LGT RAIN  48  46  93 SE13      29.67F
PERRY *        CLOUDY    55  48  76 W7        29.66R
$$

IAZ004>006-015-016-023>025-035-036-241700-
   NORTH CENTRAL IOWA

CITY           SKY/WX    TMP DP  RH WIND       PRES   REMARKS
ALGONA *       CLOUDY    46  43  87 SE8       29.67R
CLARION *      CLOUDY    48  46  93 SE12      29.65R
ESTHERVILLE    CLOUDY    44  42  93 CALM      29.67R FOG
FORT DODGE *   CLOUDY    48  45  87 SW3       29.66R
MASON CITY     LGT RAIN  45  42  89 SE14      29.67F FOG
FOREST CITY *  LGT RAIN  45  41  87 SE12      29.67R
IOWA FALLS *   CLOUDY    48  45  87 S15       29.66F
$$

IAZ007>011-017>019-026>030-037>042-050>054-066-241700-
   NORTHEAST IOWA

CITY           SKY/WX    TMP DP  RH WIND       PRES   REMARKS
CEDAR RAPIDS   CLOUDY    55  39  54 S15G25    29.71S
CHARLES CITY * CLOUDY    45  41  87 SE18G25   29.68F
CLINTON *      CLOUDY    57  39  51 SE28G33   29.80F
DECORAH *      LGT RAIN  41  41 100 SE10G22   29.75R
DUBUQUE        CLOUDY    55  39  54 S25G35    29.75F
MONTICELLO *   MOSUNNY   57  39  51 SE22G32   29.73F
OELWEIN *      LGT RAIN N/A N/A N/A SE12      29.74R
WATERLOO       LGT RAIN  45  43  93 SE13      29.69F FOG
$$

IAZ064-065-067-068-078-241700-
   EAST CENTRAL IOWA

CITY           SKY/WX    TMP DP  RH WIND       PRES   REMARKS
DAVENPORT      PTSUNNY   58  40  51 SE22G30   29.76F
IOWA CITY      CLOUDY    57  40  52 SE14      29.74S
MT. PLEASANT * CLOUDY    63  34  34 S18G28    29.73F
MUSCATINE *    CLOUDY    61  37  41 S18G26    29.74F
QUAD CITIES    PTSUNNY   61  38  42 S22G35    29.75F
$$

IAZ062-063-075>077-085>089-095>099-241700-
   SOUTHEAST IOWA

CITY           SKY/WX    TMP DP  RH WIND       PRES   REMARKS
BURLINGTON     CLOUDY    62  38  40 S15       29.75F
FAIRFIELD *    CLOUDY    55  41  58 S13G23    29.74R
FORT MADISON * PTSUNNY   63  37  39 S14G20    29.76S
KEOKUK *       CLOUDY    63  37  39 S8        29.74F
OSKALOOSA *    LGT RAIN  52  45  76 S9        29.72F
CENTERVILLE *  LGT RAIN  54  48  82 S7        29.74S
OTTUMWA        LGT RAIN  53  44  71 SW7       29.72R
WASHINGTON *   PTSUNNY   57  39  51 S22G29    29.72R
$$

ABBREVIATIONS USED IN REMARKS
   TC - TEMPERATURES IN CELSIUS
  WCI - WIND CHILL INDEX
   HX - HEAT INDEX
  VSB - VISIBILITY
$$




USA.gov is the U.S. government's official web portal to all federal, state and local government web resources and services.